User: anonymous   Login
Location: Newark
(43.4306°N, 0.3089°E)
Time: 20:05:30
(UTC+00:00)
Language:

deb Explorer IX - Orbit

View from above orbital plane
View from above orbital plane
View from above satellite
View from above satellite

Ground track
Ground track

The orbit data is extracted from the following two-line orbital elements,

1    85U 61004C   19236.91946900 +.00001321 +00000-0 +29734-3 0  9998
2    85 038.7760 097.6532 0395520 317.4348 039.6363 14.19997722888782
Epoch (UTC): 24 August 2019 22:04:02
Eccentricity: 0.0395520
inclination: 38.7760°
perigee height: 540 km
apogee height: 1110 km
right ascension of ascending node: 97.6532°
argument of perigee: 317.4348°
revolutions per day: 14.19997722
mean anomaly at epoch: 39.6363°
orbit number at epoch: 88878

The dashed part of the orbit path shows where the satellite is in the earth's shadow,  

DLR